カタログに戻る

COSMOS 1160

運用中軍事LEO
NORAD 11695·PAYLOAD·🇷🇺 Russia

打ち上げ Feb 11, 1980 から Plesetsk Cosmodrome

Loading…

次のパス (今後24時間)

TLE

最新Source: Space-Track

元期: Sep 14, 2026, 21:45 UTC

1 11695U 80012E   26257.90691185 -.00000012  00000-0  27291-4 0  9993
2 11695  74.0205 296.3023 0012146 294.8322 247.0800 12.47777096122175

AllMySatでCOSMOS 1160をリアルタイム追跡

Download on the App Store